Content
SEND FEEDBACK

Daily
Averages
Monthly
Summary
United States of America

DEDEDO, GUAM


Home > North America > United States > Guam
Elevation: 111 meters     Latitude: 13 33N     Longitude: 144 49E

WEATHER
 
SELECT A DAY
Number of Records: 209,044;   Date Range: 1/1/95 - 7/29/14
 
SHARE

PRINT THIS DATA

[ ← Previous Day ]
WEATHER ALMANAC - 25 SEPTEMBER, 2013
[ Next Day → ]
[ °F ]   °C
Weather ElementAverageHighLow
Temperature28.7 °C32.2 °C (1:54 pm)26.1 °C (1:54 am)
Dewpoint25.4 °C26.1 °C (7:54 am)23.9 °C (1:54 pm)
Humidity83.3 %97 % (1:54 am)61 % (1:54 pm)
Barometer1009.5 hPa1011.5 hPa (9:54 pm)1007.5 hPa (12:54 pm)
Wind Speed9 km/h20.4 km/h (3:54 pm)
Wind Gust29.6 km/h (3:54 pm)
Weather ElementAverage
Visibility16.1 km
Wind DirectionSSE (146.1 °)

Weather ElementTotal
Precipitation---
Cooling Degree Days10.8 (Base 18.3)
Growing Degree Days19.2 (Base 10)
Averaged from 23 records on 25 September, 2013
WEATHER CONDITIONS BREAKOUT
WIND DIRECTION BREAKOUT
WEATHER BY HOUR - 25 SEPTEMBER, 2013
[ °F ]   °C
Local TimeTemperatureDewpointHumidityBarometerVisibilityWind DirectionWind SpeedGust SpeedPrecipitationEventsConditions
1:54 AM26.1 °C25.6 °C97 %1008.5 hPa16.1 kmSouth (180°)7.4 km/hPartly Cloudy
2:54 AM26.1 °C25.6 °C97 %1008.5 hPa16.1 kmSSE (160°)5.6 km/hClear
3:54 AM26.1 °C25.6 °C97 %1008.5 hPa16.1 kmSSE (160°)5.6 km/hScattered Clouds
4:54 AM26.1 °C25.6 °C97 %1008.5 hPa16.1 kmSSE (150°)5.6 km/hClear
5:54 AM26.1 °C25 °C94 %1008.8 hPa16.1 kmCalmPartly Cloudy
6:54 AM26.7 °C25.6 °C94 %1009.5 hPa16.1 kmSSE (160°)5.6 km/hPartly Cloudy
7:54 AM28.3 °C26.1 °C88 %1010.2 hPa16.1 kmSouth (190°)11.1 km/hPartly Cloudy
8:54 AM28.9 °C26.1 °C85 %1010.2 hPa16.1 kmSouth (180°)11.1 km/hPartly Cloudy
9:54 AM30.6 °C25.6 °C74 %1009.8 hPa16.1 kmSouth (190°)11.1 km/hPartly Cloudy
10:54 AM31.1 °C24.4 °C67 %1009.5 hPa16.1 kmSouth (180°)18.5 km/h25.9 km/hScattered Clouds
11:54 AM31.7 °C25 °C67 %1008.8 hPa16.1 kmSW (220°)16.7 km/hMostly Cloudy
12:54 PM31.7 °C25 °C67 %1007.5 hPa16.1 kmSW (220°)16.7 km/hPartly Cloudy
1:54 PM32.2 °C23.9 °C61 %1007.5 hPa16.1 kmSW (220°)18.5 km/hScattered Clouds
2:54 PM31.1 °C25 °C70 %1007.8 hPa16.1 kmSW (220°)16.7 km/hMostly Cloudy
3:54 PM30.6 °C25 °C72 %1008.1 hPa16.1 kmWSW (250°)20.4 km/h29.6 km/hScattered Clouds
4:54 PM30 °C25 °C74 %1008.8 hPa16.1 kmWSW (240°)18.5 km/hScattered Clouds
5:54 PM28.9 °C25.6 °C82 %1009.5 hPa16.1 kmSW (230°)11.1 km/hPartly Cloudy
6:54 PM28.3 °C25.6 °C85 %1010.2 hPa16.1 kmSSW (210°)7.4 km/hPartly Cloudy
7:54 PM28.3 °C25.6 °C85 %1010.8 hPa16.1 kmCalmClear
8:54 PM27.8 °C25.6 °C88 %1011.2 hPa16.1 kmCalmClear
9:54 PM27.8 °C25.6 °C88 %1011.5 hPa16.1 kmCalmPartly Cloudy
10:54 PM27.2 °C26.1 °C94 %1011.2 hPa16.1 kmCalm0 mmScattered Clouds
11:54 PM27.2 °C26.1 °C94 %1010.8 hPa16.1 kmCalmClear
Hourly data recorded from PGUM, located 0 kilometers away from Dededo, Guam







STORIES FROM OUR PARTNERS